SWR54B LSZH-KBOS

Flight info

Callsign SWR54B
Flight time N/A
Altitude 34000
Route VEBIT T10 TORPA DCT REKLA DCT RLP DCT ROTSI/N0452F380 DCT AMODO DCT COHPA UM729 RESMI UN491 LGL UN502 JSY DCT LIZAD DCT ARKIL DCT TOBOR/M079F390 NATD IBERG/N0455F400 N364A TUSKY DCT EURRO OOSHN5
Aircraft A343/H-SDE2E3FGHIJ4J5M1RWXY/LB1D1

Departure

Time 2026-04-30 11:44
Airport Zürich Airport (LSZH)

Arrival

Time N/A
Airport Boston Logan International Airport (KBOS)
Time Latitude Longitude Altitude Speed Heading
2026-04-30 11:35 47.45947 8.55784 1409 ft 0 kts 273°
2026-04-30 11:38 47.45947 8.55775 1409 ft 2 kts 273°
2026-04-30 11:38 47.45949 8.55718 1407 ft 9 kts 273°
2026-04-30 11:38 47.45956 8.55619 1405 ft 11 kts 276°
2026-04-30 11:39 47.45965 8.55499 1411 ft 13 kts 276°
2026-04-30 11:39 47.45975 8.55358 1404 ft 15 kts 275°
2026-04-30 11:39 47.45979 8.55202 1404 ft 12 kts 257°
2026-04-30 11:39 47.45946 8.55147 1407 ft 7 kts 216°
2026-04-30 11:40 47.45908 8.55085 1409 ft 10 kts 250°
2026-04-30 11:40 47.45912 8.54974 1397 ft 12 kts 277°
2026-04-30 11:40 47.45923 8.54833 1403 ft 15 kts 276°
2026-04-30 11:40 47.45933 8.54678 1402 ft 15 kts 276°
2026-04-30 11:41 47.45944 8.54521 1395 ft 15 kts 276°
2026-04-30 11:41 47.45955 8.54370 1398 ft 14 kts 276°
2026-04-30 11:41 47.45964 8.54231 1407 ft 13 kts 276°
2026-04-30 11:41 47.45973 8.54104 1402 ft 12 kts 274°
2026-04-30 11:42 47.45983 8.53993 1404 ft 11 kts 278°
2026-04-30 11:42 47.45991 8.53886 1407 ft 10 kts 272°
2026-04-30 11:42 47.45971 8.53799 1413 ft 9 kts 227°
2026-04-30 11:42 47.45915 8.53770 1409 ft 8 kts 192°
2026-04-30 11:43 47.45892 8.53790 1412 ft 3 kts 117°
2026-04-30 11:43 47.45891 8.53803 1406 ft 0 kts 97°
2026-04-30 11:43 47.45870 8.54091 1405 ft 63 kts 95°
2026-04-30 11:44 47.45801 8.55066 1403 ft 125 kts 96°
2026-04-30 11:44 47.45690 8.56557 1677 ft 156 kts 92°
2026-04-30 11:44 47.45559 8.58183 2390 ft 164 kts 92°
2026-04-30 11:44 47.45414 8.59891 3157 ft 172 kts 92°
2026-04-30 11:45 47.45408 8.61623 3870 ft 166 kts 70°
2026-04-30 11:45 47.46232 8.62732 4505 ft 170 kts 19°
2026-04-30 11:45 47.47462 8.62558 4855 ft 190 kts 347°
2026-04-30 11:45 47.48750 8.61830 5084 ft 212 kts 341°
2026-04-30 11:46 47.50051 8.60566 5456 ft 235 kts 312°
2026-04-30 11:46 47.50686 8.58297 5940 ft 255 kts 271°
2026-04-30 11:46 47.50167 8.55762 6431 ft 268 kts 230°
2026-04-30 11:46 47.48816 8.53808 6954 ft 279 kts 220°
2026-04-30 11:47 47.47452 8.51725 7705 ft 285 kts 227°
2026-04-30 11:47 47.46213 8.49408 8495 ft 289 kts 231°
2026-04-30 11:47 47.44986 8.47030 9312 ft 292 kts 232°
2026-04-30 11:47 47.43781 8.44610 10115 ft 295 kts 233°
2026-04-30 11:48 47.42564 8.42115 10643 ft 305 kts 234°
2026-04-30 11:48 47.41297 8.39484 10961 ft 323 kts 234°
2026-04-30 11:48 47.39962 8.36692 11244 ft 341 kts 234°
2026-04-30 11:48 47.38661 8.33733 11579 ft 355 kts 240°
2026-04-30 11:49 47.37484 8.30505 12166 ft 360 kts 242°
2026-04-30 11:49 47.36310 8.27189 12690 ft 369 kts 243°
2026-04-30 11:49 47.35106 8.23795 13236 ft 376 kts 242°
2026-04-30 11:49 47.33896 8.20376 13944 ft 378 kts 243°
2026-04-30 11:50 47.32676 8.16943 14616 ft 379 kts 243°
2026-04-30 11:50 47.31441 8.13468 15115 ft 387 kts 243°
2026-04-30 11:50 47.30595 8.11081 15462 ft 390 kts 243°
2026-04-30 11:50 47.28930 8.06394 16433 ft 389 kts 243°
2026-04-30 11:51 47.28118 8.04029 16814 ft 392 kts 246°
2026-04-30 11:51 47.27294 8.00197 17332 ft 394 kts 263°
2026-04-30 11:51 47.27206 7.96164 17875 ft 395 kts 275°
2026-04-30 11:51 47.27456 7.92122 18487 ft 397 kts 279°
2026-04-30 11:52 47.27854 7.88078 19016 ft 400 kts 281°
2026-04-30 11:52 47.28306 7.84018 19500 ft 403 kts 282°
2026-04-30 11:52 47.28765 7.79927 19993 ft 407 kts 282°
2026-04-30 11:52 47.29209 7.75791 20499 ft 410 kts 281°
2026-04-30 11:53 47.29633 7.71624 20995 ft 413 kts 280°
2026-04-30 11:53 47.30042 7.67415 21504 ft 416 kts 280°
2026-04-30 11:53 47.30554 7.63264 21975 ft 418 kts 287°
2026-04-30 11:53 47.31315 7.59121 22432 ft 420 kts 289°
2026-04-30 11:54 47.32155 7.54978 22885 ft 423 kts 290°
2026-04-30 11:54 47.33042 7.50830 23353 ft 425 kts 290°
2026-04-30 11:54 47.33957 7.46654 23754 ft 429 kts 290°
2026-04-30 11:54 47.34884 7.42449 24089 ft 433 kts 290°
2026-04-30 11:55 47.35815 7.38213 24461 ft 435 kts 290°
2026-04-30 11:55 47.36744 7.33948 24806 ft 438 kts 290°
2026-04-30 11:55 47.37678 7.29641 25150 ft 441 kts 290°
2026-04-30 11:55 47.38612 7.25311 25509 ft 444 kts 290°
2026-04-30 11:56 47.39532 7.21023 25870 ft 446 kts 290°
2026-04-30 11:56 47.40447 7.16629 26166 ft 450 kts 287°
2026-04-30 11:56 47.41194 7.12127 26519 ft 453 kts 285°
2026-04-30 11:56 47.41898 7.07583 26851 ft 455 kts 284°
2026-04-30 11:57 47.42582 7.03000 27163 ft 458 kts 284°
2026-04-30 11:57 47.43257 6.98382 27496 ft 460 kts 284°
2026-04-30 11:57 47.43929 6.93745 27826 ft 462 kts 283°
2026-04-30 11:57 47.44601 6.89098 28121 ft 464 kts 283°
2026-04-30 11:58 47.45277 6.84418 28416 ft 467 kts 283°
2026-04-30 11:58 47.45957 6.79715 28722 ft 469 kts 283°
2026-04-30 11:58 47.46628 6.75058 29016 ft 471 kts 283°
2026-04-30 11:58 47.47311 6.70312 29308 ft 473 kts 283°
2026-04-30 11:59 47.47906 6.65520 29553 ft 476 kts 278°
2026-04-30 11:59 47.48329 6.60642 29749 ft 480 kts 277°
2026-04-30 11:59 47.48711 6.55716 29947 ft 483 kts 277°
2026-04-30 11:59 47.49068 6.50781 30284 ft 484 kts 276°
2026-04-30 12:00 47.49412 6.45829 30561 ft 484 kts 275°
2026-04-30 12:00 47.49724 6.40867 30754 ft 486 kts 275°
2026-04-30 12:00 47.50028 6.35860 30916 ft 489 kts 275°
2026-04-30 12:00 47.50343 6.30839 31147 ft 490 kts 275°
2026-04-30 12:01 47.50669 6.25813 31423 ft 490 kts 275°
2026-04-30 12:01 47.51001 6.20854 31637 ft 491 kts 275°
2026-04-30 12:01 47.51345 6.15816 31828 ft 493 kts 275°
2026-04-30 12:01 47.51691 6.10773 32094 ft 492 kts 275°
2026-04-30 12:02 47.52035 6.05750 32426 ft 490 kts 275°